[[{"header":{"parameterUnit":"m.s-1","parameterCategory":1,"la1":30.2991,"la2":30.254,"lo1":-89.0895,"lo2":-89.0444,"dy":0.0017,"dx":0.0017,"nx":28,"ny":28,"refTime":"2025-01-23T03:00:00:Z","depth":0,"parameterNumber":2,"parameterNumberName":"U-component_of_WINDS"},"data":[0,0,0,0,0,0,0,0,0,0,0,0,0,0,0,0,0,0,0,0,0,0,0,0,0,0,0,0,0,0,0,0,0,0,0,0,0,0,0,0,0,0,0,0,0,0,0,0,0,0,0,0,0,0,0,0,0,0,0.8178,0.8177,0,0.8151,0.8151,0.815,0.8155,0.8155,0.8156,0.8156,0.8126,0.8124,0.8123,0,0,0,0,0,0,0,0,0,0,0,0,0,0.823,0.8229,0.8178,0.8177,0.8177,0.8151,0.8151,0.815,0.8155,0.8155,0.8156,0.8156,0.8126,0.8125,0.8123,0,0,0,0,0,0,0,0,0,0,0,0,0,0.8206,0.8229,0.8178,0.8176,0.8176,0.8151,0.8151,0.815,0.8154,0.8155,0.8156,0.8156,0.8127,0.8125,0.8123,0.8097,0,0,0.8117,0.8116,0,0,0,0,0,0,0,0,0.8207,0.8204,0.8177,0.8176,0.8176,0.8157,0.8158,0.8132,0.8154,0.8162,0.8156,0.8157,0.8135,0.8133,0.8126,0.8096,0.8094,0.8117,0.8116,0.8115,0.8114,0,0,0,0,0,0,0,0.8209,0.8205,0.8167,0.8176,0.8176,0.8176,0.8173,0.8153,0.8145,0.8162,0.8162,0.8159,0.8135,0.8128,0.8125,0.8094,0.8117,0.8115,0.8114,0.8113,0.8041,0.804,0,0,0,0,0,0,0.8211,0.8206,0.8168,0.8166,0.8194,0.8174,0.8171,0.8162,0.8145,0.8144,0.8158,0.8159,0.8131,0.8128,0.8124,0.8092,0.8115,0.8113,0.8112,0.8041,0.804,0.804,0,0,0,0,0,0,0.8213,0.8208,0.8169,0.8186,0.8181,0.8173,0.8162,0.8161,0.8154,0.8143,0.8141,0.8153,0.8131,0.8127,0.8104,0.8091,0.8112,0.8111,0.8042,0.8041,0.804,0.8029,0,0,0,0,0,0,0.8214,0.8208,0.8199,0.8186,0.8181,0.815,0.8162,0.816,0.8151,0.8152,0.8137,0.8135,0.8131,0.8107,0.8102,0.8089,0.8109,0.8043,0.8042,0.804,0.803,0.8027,0.8025,0,0,0,0,0,0.8216,0.8196,0.8199,0.8194,0.8169,0.8149,0.8146,0.8143,0.815,0.814,0.8133,0.8136,0.8094,0.8104,0.8099,0.8086,0.8044,0.8042,0.804,0.8031,0.8028,0.8025,0,0,0,0,0,0,0.8207,0.8195,0.8197,0.8173,0.8162,0.815,0.8137,0.8139,0.8125,0.8126,0.8122,0.8119,0.8095,0.8088,0.81,0.8059,0.807,0.8067,0.8065,0.8061,0.8059,0.806,0.8108,0,0,0,0,0,0.8202,0.8188,0.8178,0.8158,0.8152,0.8146,0.8137,0.8136,0.8124,0.8119,0.811,0.8098,0.8082,0.8072,0.8056,0.803,0.8026,0.8018,0.8015,0.8013,0.801,0.7995,0.7991,0.8033,0.8034,0.8034,0,0,0.8192,0.8184,0.8175,0.8156,0.8147,0.8132,0.8142,0.8125,0.8113,0.8116,0.8094,0.8087,0.8073,0.8048,0.8037,0.8041,0.7998,0.8011,0.8009,0.8007,0.7992,0.7988,0.7985,0.8032,0.8032,0.8033,0,0,0.8166,0.8159,0.8141,0.8132,0.812,0.8116,0.8111,0.8099,0.8095,0.8073,0.8074,0.806,0.8033,0.8023,0.8014,0.7984,0.7986,0.7979,0.7965,0.795,0.7947,0.7944,0.7932,0.7928,0.7977,0.7977,0.7977,0,0.8155,0.8132,0.8131,0.8114,0.8105,0.8109,0.809,0.8081,0.8064,0.8057,0.8063,0.8029,0.802,0.7992,0.7985,0.7979,0.7973,0.798,0.7947,0.7944,0.7941,0.793,0.7926,0.7976,0.7976,0.7976,0.7976,0,0.8119,0.8103,0.809,0.8074,0.8064,0.8046,0.8041,0.8031,0.8031,0.8026,0.8003,0.7992,0.7975,0.7968,0.7967,0.794,0.7943,0.7949,0.7959,0.7937,0.7926,0.7922,0.7975,0.7975,0.7975,0.7976,0,0,0.8085,0.8069,0.8064,0.8057,0.8043,0.8031,0.8013,0.7997,0.7987,0.7975,0.7959,0.7937,0.7942,0.7932,0.793,0.7917,0.7893,0.7924,0.7923,0.7917,0.7861,0.7856,0.7851,0.7895,0.7894,0.7893,0.7862,0,0.8056,0.8025,0.8024,0.7995,0.798,0.7984,0.7968,0.7958,0.7953,0.7939,0.7933,0.7916,0.7925,0.7918,0.7906,0.7899,0.7881,0.7901,0.7878,0.7878,0.788,0.7846,0.7841,0.7812,0.7858,0.7857,0.7857,0,0.8018,0.8006,0.7976,0.7965,0.7959,0.7945,0.7929,0.7916,0.7904,0.7902,0.7891,0.7891,0.7872,0.7884,0.7857,0.787,0.7861,0.7856,0.7855,0.7851,0.7865,0.784,0.7802,0.7797,0.785,0.7851,0.7851,0,0.7995,0.7971,0.795,0.7944,0.793,0.792,0.7914,0.7903,0.7893,0.788,0.7873,0.7858,0.7849,0.7836,0.7832,0.7842,0.7805,0.7817,0.7801,0.7801,0.7791,0.7792,0.775,0.7788,0.7788,0.7788,0.7788,0,0.7962,0.7944,0.7939,0.7926,0.7905,0.7904,0.7883,0.7877,0.7867,0.7853,0.7855,0.7841,0.7837,0.7821,0.7818,0.7795,0.7792,0.7788,0.7787,0.7787,0.7787,0.778,0.7781,0.7787,0.7787,0.7787,0.7788,0,0.7932,0.7929,0.7906,0.7895,0.7892,0.7877,0.7868,0.7855,0.785,0.7832,0.7827,0.782,0.7802,0.7797,0.7776,0.7774,0.7747,0.7748,0.7751,0.775,0.7734,0.7735,0.7685,0.7678,0.7722,0.7721,0.7721,0,0.7911,0.7897,0.7885,0.7876,0.7869,0.7854,0.7844,0.7842,0.7832,0.7818,0.7806,0.7789,0.7775,0.7747,0.7739,0.7722,0.7723,0.7706,0.772,0.772,0.7721,0.7721,0.7719,0.7703,0.7703,0.7702,0.7702,0,0.7873,0.7872,0.7859,0.7844,0.7833,0.7822,0.781,0.7803,0.7799,0.7787,0.777,0.7759,0.7738,0.772,0.7704,0.7696,0.7698,0.7698,0.7693,0.7692,0.7694,0.7691,0.7742,0.7699,0.7699,0.7699,0.77,0.77,0.7845,0.7833,0.7823,0.7807,0.7799,0.7789,0.7776,0.7771,0.7756,0.7739,0.7739,0.772,0.7708,0.7686,0.7678,0.7662,0.7667,0.766,0.7658,0.7656,0.7654,0.7698,0.7659,0.7659,0.7659,0.7659,0.7659,0,0.7807,0.78,0.7787,0.7771,0.7759,0.7764,0.7752,0.7741,0.7724,0.7714,0.77,0.768,0.7663,0.7654,0.7637,0.7626,0.7627,0.7622,0.7622,0.762,0.7651,0.7657,0.7622,0.7622,0.7622,0.7622,0.7622,0.7622,0.7785,0.7763,0.7761,0.7736,0.773,0.7711,0.7704,0.7694,0.7686,0.7663,0.7649,0.7644,0.7634,0.7617,0.7601,0.7599,0.7592,0.7586,0.7584,0.7614,0.7618,0.7621,0.7626,0.7585,0.7585,0.7554,0.7554,0.7553]},{"header":{"parameterUnit":"m.s-1","parameterCategory":1,"la1":30.2991,"la2":30.254,"lo1":-89.0895,"lo2":-89.0444,"dy":0.0017,"dx":0.0017,"nx":28,"ny":28,"refTime":"2025-01-23T03:00:00:Z","depth":0,"parameterNumber":3,"parameterNumberName":"V-component_of_WINDS"},"data":[0,0,0,0,0,0,0,0,0,0,0,0,0,0,0,0,0,0,0,0,0,0,0,0,0,0,0,0,0,0,0,0,0,0,0,0,0,0,0,0,0,0,0,0,0,0,0,0,0,0,0,0,0,0,0,0,0,0,0.3405,0.3405,0,0.3393,0.3393,0.3393,0.3413,0.3414,0.3415,0.3415,0.3403,0.3402,0.3401,0,0,0,0,0,0,0,0,0,0,0,0,0,0.3444,0.3444,0.3405,0.3405,0.3405,0.3393,0.3393,0.3393,0.3413,0.3414,0.3415,0.3416,0.3403,0.3402,0.3401,0,0,0,0,0,0,0,0,0,0,0,0,0,0.3429,0.3443,0.3405,0.3413,0.3414,0.3393,0.3393,0.3393,0.3413,0.3414,0.3415,0.3416,0.3404,0.3402,0.3401,0.3371,0,0,0.3396,0.3396,0,0,0,0,0,0,0,0,0.343,0.3428,0.3412,0.3413,0.3414,0.3406,0.3403,0.3386,0.3413,0.3413,0.3415,0.3416,0.3403,0.3402,0.3397,0.3371,0.337,0.3396,0.3395,0.3395,0.3394,0,0,0,0,0,0,0,0.3431,0.3429,0.34,0.3412,0.3413,0.3418,0.3417,0.3399,0.3403,0.3413,0.3415,0.3413,0.3403,0.3399,0.3397,0.337,0.3396,0.3395,0.3394,0.3393,0.3318,0.3317,0,0,0,0,0,0,0.3431,0.3429,0.3401,0.34,0.3425,0.3416,0.3415,0.3407,0.3403,0.3403,0.3412,0.3414,0.34,0.3399,0.3397,0.3361,0.3395,0.3393,0.3392,0.3319,0.3318,0.3317,0,0,0,0,0,0,0.3432,0.3429,0.3401,0.3415,0.3412,0.3414,0.3405,0.3406,0.3402,0.3402,0.3403,0.3407,0.3401,0.3399,0.3377,0.3361,0.3393,0.3391,0.3321,0.3319,0.3317,0.3291,0,0,0,0,0,0,0.3433,0.3429,0.3418,0.3415,0.3411,0.3382,0.3405,0.3406,0.3399,0.3401,0.3397,0.3397,0.3402,0.3379,0.3376,0.336,0.339,0.3322,0.332,0.3318,0.3293,0.3289,0.3285,0,0,0,0,0,0.3434,0.3411,0.3417,0.3414,0.3397,0.3381,0.3379,0.3385,0.3398,0.3386,0.3387,0.3397,0.3364,0.3377,0.3373,0.3357,0.3323,0.332,0.3318,0.3295,0.329,0.3285,0,0,0,0,0,0,0.3412,0.3411,0.3418,0.3392,0.3387,0.3385,0.3371,0.3379,0.337,0.3372,0.338,0.3379,0.3356,0.3354,0.3369,0.3328,0.3345,0.3342,0.3329,0.3324,0.332,0.332,0.3389,0,0,0,0,0,0.3404,0.3391,0.3391,0.3368,0.3365,0.3368,0.3362,0.3367,0.3361,0.3359,0.3358,0.3352,0.334,0.3332,0.3321,0.3293,0.3292,0.328,0.3276,0.3272,0.3269,0.3253,0.3248,0.3308,0.3308,0.3308,0,0,0.3388,0.3385,0.3377,0.3364,0.336,0.3346,0.3366,0.3351,0.3341,0.3357,0.3336,0.3335,0.3329,0.3304,0.3293,0.3302,0.3252,0.3269,0.3266,0.3265,0.325,0.3244,0.3239,0.3307,0.3307,0.3307,0,0,0.335,0.3348,0.3328,0.3324,0.3318,0.3321,0.3316,0.3313,0.3312,0.3292,0.3304,0.3291,0.3271,0.3266,0.3261,0.3221,0.3231,0.3218,0.3195,0.318,0.3175,0.3171,0.3156,0.3151,0.3215,0.3215,0.3215,0,0.3331,0.331,0.3318,0.3301,0.3295,0.3309,0.3289,0.3285,0.3276,0.3271,0.3281,0.3255,0.3252,0.3226,0.3217,0.3212,0.3207,0.3218,0.3175,0.3171,0.3167,0.3153,0.3148,0.3213,0.3213,0.3213,0.3213,0,0.3286,0.3272,0.3257,0.3248,0.324,0.3222,0.3226,0.3218,0.3223,0.3224,0.3203,0.32,0.3188,0.3183,0.3188,0.3157,0.3163,0.3174,0.3192,0.316,0.3147,0.3142,0.3211,0.3211,0.3212,0.3212,0,0,0.3234,0.3229,0.3223,0.3219,0.3214,0.3203,0.3185,0.3174,0.3166,0.3159,0.3145,0.3127,0.3137,0.3131,0.3136,0.3123,0.3091,0.3136,0.3136,0.3127,0.3056,0.3047,0.3041,0.3097,0.3096,0.3096,0.3056,0,0.3197,0.3167,0.3173,0.3144,0.313,0.3143,0.3128,0.3123,0.3123,0.3112,0.3112,0.3099,0.3114,0.311,0.3098,0.3098,0.3077,0.3101,0.3083,0.3083,0.3084,0.3035,0.3025,0.2989,0.3052,0.3051,0.305,0,0.3149,0.3141,0.311,0.3106,0.3101,0.3087,0.3077,0.3066,0.306,0.3062,0.3055,0.3062,0.3044,0.3063,0.3039,0.3054,0.3048,0.3047,0.3045,0.3044,0.3064,0.3031,0.2977,0.2971,0.3042,0.3043,0.3043,0,0.3114,0.3095,0.3074,0.307,0.3065,0.3055,0.3052,0.3048,0.304,0.3031,0.3027,0.3016,0.301,0.3001,0.3005,0.3019,0.298,0.2999,0.298,0.298,0.2971,0.2971,0.2915,0.2967,0.2968,0.2968,0.2968,0,0.3071,0.3052,0.3058,0.3045,0.3023,0.303,0.3008,0.3007,0.3003,0.299,0.3,0.2988,0.2994,0.2982,0.2985,0.2964,0.2961,0.2962,0.2963,0.296,0.296,0.2956,0.2958,0.2966,0.2967,0.2967,0.2967,0,0.3028,0.3031,0.3009,0.3006,0.3005,0.2989,0.2987,0.2974,0.2976,0.2959,0.2955,0.2957,0.2943,0.2946,0.2931,0.2933,0.2907,0.2911,0.2909,0.291,0.289,0.2892,0.2828,0.282,0.2879,0.2878,0.2878,0,0.3001,0.2986,0.2981,0.2973,0.297,0.2957,0.295,0.2956,0.2947,0.2939,0.2928,0.2915,0.2905,0.2882,0.2882,0.287,0.2874,0.2852,0.2872,0.287,0.2873,0.2873,0.2872,0.2848,0.2848,0.2847,0.2847,0,0.2951,0.2953,0.2942,0.2931,0.2922,0.2914,0.2907,0.29,0.2905,0.2895,0.2881,0.2873,0.2858,0.2844,0.2834,0.2831,0.2839,0.2841,0.2835,0.2833,0.2832,0.2831,0.2897,0.2842,0.2842,0.2843,0.2843,0.2843,0.2914,0.2902,0.2897,0.2884,0.2879,0.2872,0.286,0.286,0.2848,0.2836,0.284,0.2824,0.2818,0.2804,0.28,0.2787,0.2795,0.2788,0.2786,0.2784,0.2781,0.2834,0.2785,0.2785,0.2786,0.2786,0.2786,0,0.2865,0.2862,0.285,0.284,0.283,0.2839,0.2831,0.2822,0.2807,0.2801,0.2791,0.2775,0.2762,0.276,0.2748,0.2738,0.2742,0.2735,0.2735,0.2734,0.2775,0.278,0.2732,0.2732,0.2732,0.2732,0.2732,0.2732,0.2838,0.2817,0.2818,0.2795,0.2792,0.2776,0.2771,0.2764,0.2759,0.274,0.273,0.2729,0.2725,0.2712,0.2701,0.2701,0.2695,0.2687,0.2688,0.2726,0.2731,0.2737,0.2742,0.2686,0.2686,0.2648,0.2648,0.2648]}]]